OK1FET-15 Weather Reports


Display with metric or nautical units.
time (UTC)temp
F
wind
direction
speed
MPH
gust
MPH
rain 1hr
in
rain 24hr
in
rain mn
in
humidity
%
barometer
mb
20260504182423 66 38 0.0 0.0 0.00 0.00 0.00 41 1010.7
20260504181859 66 7 0.0 0.0 0.00 0.00 0.00 40 1010.7
20260504181334 66 327 0.0 0.0 0.00 0.00 0.00 39 1010.7
20260504180809 67 293 0.0 0.0 0.00 0.00 0.00 39 1010.6
20260504180243 67 270 0.0 0.0 0.00 0.00 0.00 37 1010.6
20260504175736 68 229 0.0 0.0 0.00 0.00 0.00 37 1010.6
20260504175228 68 225 0.0 0.0 0.00 0.00 0.00 36 1010.5
20260504174720 69 225 0.0 0.0 0.00 0.00 0.00 36 1010.5
20260504174212 69 225 0.0 0.0 0.00 0.00 0.00 36 1010.4
20260504173704 70 225 0.0 0.0 0.00 0.00 0.00 36 1010.4
20260504173157 70 225 0.0 0.0 0.00 0.00 0.00 36 1010.4
20260504172649 71 225 0.0 0.0 0.00 0.00 0.00 36 1010.5
20260504172141 71 225 0.0 0.0 0.00 0.00 0.00 35 1010.6
20260504171633 72 225 0.0 0.0 0.00 0.00 0.00 34 1010.6
20260504171125 72 225 0.0 0.0 0.00 0.00 0.00 34 1010.6
20260504170617 73 225 0.0 0.0 0.00 0.00 0.00 34 1010.6
20260504170109 73 181 0.0 0.0 0.00 0.00 0.00 34 1010.7
20260504160441 77 110 0.0 0.0 0.00 0.00 0.00 30 1011.0
20260504150809 85 182 0.0 1.0 0.00 0.00 0.00 25 1011.4
20260504150300 85 91 0.0 0.0 0.00 0.00 0.00 25 1011.4
20260504141133 88 119 0.0 0.0 0.00 0.00 0.00 24 1011.6
20260504140625 86 180 0.0 0.0 0.00 0.00 0.00 24 1011.7
20260504140116 86 232 0.0 0.0 0.00 0.00 0.00 24 1011.8
20260504130442 82 105 0.0 0.0 0.00 0.00 0.00 26 1012.3
20260504120257 91 188 0.0 0.0 0.00 0.00 0.00 21 1012.6
20260504110618 89 62 0.0 0.0 0.00 0.00 0.00 22 1013.2
20260504110110 88 220 0.0 1.0 0.00 0.00 0.00 24 1013.2
20260504100432 86 164 1.0 3.0 0.00 0.00 0.00 27 1013.9
20260504081636 75 37 0.0 2.0 0.00 0.00 0.00 39 1014.1
20260504081128 75 77 0.0 0.0 0.00 0.00 0.00 39 1014.1
20260504080619 75 122 0.0 2.0 0.00 0.00 0.00 40 1014.1
20260504080111 75 111 0.0 0.0 0.00 0.00 0.00 40 1014.1
20260504050419 54 225 0.0 0.0 0.00 0.00 0.00 73 1013.5
20260504045855 54 153 0.0 0.0 0.00 0.00 0.00 72 1013.5